Stündliche Wetter Czyste

Heute, 21 Oktober, Mittwoch

Zeit Temperatur Niederschläge Wind Luftdruck Luftfeuchtigkeit
00:00 +9°C° 0 mm 5 m/S 753 mmHg 73%
01:00 +9°C° 0 mm 5 m/S 753 mmHg 74%
02:00 +10°C° 0.1 mm 4 m/S 752 mmHg 75%
03:00 +10°C° 0.1 mm 4 m/S 752 mmHg 76%
04:00 +10°C° 0.1 mm 4 m/S 752 mmHg 77%
05:00 +10°C° 0 mm 4 m/S 752 mmHg 78%
06:00 +10°C° 0 mm 4 m/S 752 mmHg 78%
07:00 +10°C° 0 mm 4 m/S 752 mmHg 79%
08:00 +10°C° 0.2 mm 4 m/S 752 mmHg 80%
09:00 +10°C° 0.2 mm 4 m/S 752 mmHg 81%
10:00 +10°C° 0.2 mm 3 m/S 752 mmHg 82%
11:00 +10°C° 0.1 mm 3 m/S 752 mmHg 81%
12:00 +10°C° 0.1 mm 3 m/S 752 mmHg 79%
13:00 +10°C° 0.1 mm 3 m/S 752 mmHg 77%
14:00 +11°C° 0 mm 3 m/S 752 mmHg 76%
15:00 +11°C° 0 mm 3 m/S 751 mmHg 76%
16:00 +11°C° 0 mm 3 m/S 751 mmHg 75%
17:00 +11°C° 0 mm 4 m/S 751 mmHg 76%
18:00 +11°C° 0 mm 4 m/S 751 mmHg 78%
19:00 +11°C° 0 mm 4 m/S 751 mmHg 80%
20:00 +11°C° 0 mm 4 m/S 751 mmHg 79%
21:00 +11°C° 0 mm 4 m/S 751 mmHg 78%
22:00 +11°C° 0 mm 4 m/S 751 mmHg 77%
23:00 +10°C° 0 mm 5 m/S 751 mmHg 76%

Morgen, 22 Oktober, Donnerstag

Zeit Temperatur Niederschläge Wind Luftdruck Luftfeuchtigkeit
00:00 +10°C° 0 mm 5 m/S 751 mmHg 74%
01:00 +10°C° 0 mm 5 m/S 751 mmHg 73%
02:00 +10°C° 0 mm 5 m/S 751 mmHg 73%
03:00 +10°C° 0 mm 6 m/S 751 mmHg 73%
04:00 +11°C° 0 mm 6 m/S 750 mmHg 72%
05:00 +11°C° 0 mm 6 m/S 751 mmHg 73%
06:00 +11°C° 0 mm 6 m/S 751 mmHg 74%
07:00 +11°C° 0 mm 6 m/S 751 mmHg 75%
08:00 +13°C° 0 mm 6 m/S 752 mmHg 73%
09:00 +15°C° 0 mm 6 m/S 752 mmHg 71%
10:00 +16°C° 0 mm 7 m/S 752 mmHg 70%
11:00 +16°C° 0 mm 6 m/S 752 mmHg 68%
12:00 +17°C° 0 mm 6 m/S 752 mmHg 66%
13:00 +19°C° 0 mm 6 m/S 752 mmHg 65%
14:00 +17°C° 0 mm 5 m/S 752 mmHg 68%
15:00 +17°C° 0 mm 5 m/S 752 mmHg 70%
16:00 +17°C° 0 mm 4 m/S 752 mmHg 73%
17:00 +17°C° 0 mm 4 m/S 752 mmHg 75%
18:00 +15°C° 0 mm 4 m/S 752 mmHg 77%
19:00 +14°C° 0 mm 4 m/S 752 mmHg 80%
20:00 +14°C° 0 mm 4 m/S 752 mmHg 80%
21:00 +14°C° 0 mm 4 m/S 752 mmHg 80%
22:00 +14°C° 0 mm 4 m/S 752 mmHg 81%
23:00 +14°C° 0 mm 4 m/S 752 mmHg 79%

übermorgen, 23 Oktober, Freitag

Zeit Temperatur Niederschläge Wind Luftdruck Luftfeuchtigkeit
00:00 +14°C° 0 mm 5 m/S 752 mmHg 78%
01:00 +14°C° 0 mm 5 m/S 752 mmHg 77%
02:00 +14°C° 0 mm 5 m/S 751 mmHg 76%
03:00 +14°C° 0 mm 5 m/S 751 mmHg 76%
04:00 +14°C° 0 mm 6 m/S 751 mmHg 76%
05:00 +14°C° 0.1 mm 5 m/S 751 mmHg 80%
06:00 +14°C° 0.1 mm 5 m/S 751 mmHg 83%
07:00 +14°C° 0.1 mm 5 m/S 750 mmHg 87%
08:00 +14°C° 0 mm 5 m/S 750 mmHg 84%
09:00 +15°C° 0 mm 5 m/S 751 mmHg 81%
10:00 +15°C° 0 mm 5 m/S 751 mmHg 79%
11:00 +16°C° 0 mm 5 m/S 751 mmHg 78%
12:00 +16°C° 0 mm 5 m/S 750 mmHg 77%
13:00 +16°C° 0 mm 5 m/S 750 mmHg 76%
14:00 +17°C° 0 mm 4 m/S 750 mmHg 77%
15:00 +16°C° 0 mm 3 m/S 750 mmHg 78%
16:00 +16°C° 0 mm 3 m/S 750 mmHg 79%
17:00 +15°C° 0 mm 2 m/S 750 mmHg 80%
18:00 +15°C° 0 mm 2 m/S 750 mmHg 82%
19:00 +14°C° 0 mm 1 m/S 750 mmHg 84%
20:00 +14°C° 0.1 mm 1 m/S 750 mmHg 85%
21:00 +14°C° 0.1 mm 1 m/S 750 mmHg 86%
22:00 +14°C° 0.1 mm 1 m/S 750 mmHg 87%
23:00 +14°C° 1.5 mm 1 m/S 749 mmHg 90%

24 Oktober, Samstag

Zeit Temperatur Niederschläge Wind Luftdruck Luftfeuchtigkeit
00:00 +14°C° 1.5 mm 1 m/S 749 mmHg 94%
01:00 +14°C° 1.5 mm 2 m/S 749 mmHg 97%
02:00 +14°C° 2.1 mm 2 m/S 748 mmHg 97%
03:00 +13°C° 2.1 mm 3 m/S 748 mmHg 96%
04:00 +13°C° 2.1 mm 3 m/S 748 mmHg 96%
05:00 +13°C° 0.6 mm 4 m/S 748 mmHg 93%
06:00 +13°C° 0.6 mm 4 m/S 748 mmHg 90%
07:00 +13°C° 0.6 mm 5 m/S 748 mmHg 87%
08:00 +13°C° 0.2 mm 6 m/S 748 mmHg 82%
09:00 +12°C° 0.2 mm 7 m/S 749 mmHg 77%
10:00 +11°C° 0.2 mm 9 m/S 749 mmHg 72%
11:00 +11°C° 0.2 mm 8 m/S 749 mmHg 71%
12:00 +11°C° 0.2 mm 8 m/S 750 mmHg 70%
13:00 +11°C° 0.2 mm 8 m/S 750 mmHg 68%
14:00 +10°C° 0.2 mm 8 m/S 751 mmHg 69%
15:00 +10°C° 0.2 mm 7 m/S 752 mmHg 69%
16:00 +9°C° 0.2 mm 7 m/S 752 mmHg 69%
17:00 +9°C° 0 mm 6 m/S 753 mmHg 72%
18:00 +8°C° 0 mm 6 m/S 753 mmHg 74%
19:00 +7°C° 0 mm 5 m/S 754 mmHg 77%
20:00 +7°C° 0 mm 5 m/S 754 mmHg 79%
21:00 +7°C° 0 mm 5 m/S 755 mmHg 81%
22:00 +7°C° 0 mm 5 m/S 755 mmHg 82%
23:00 +6°C° 0 mm 4 m/S 755 mmHg 84%

25 Oktober, Sonntag

Zeit Temperatur Niederschläge Wind Luftdruck Luftfeuchtigkeit
00:00 +6°C° 0 mm 4 m/S 755 mmHg 86%
01:00 +5°C° 0 mm 3 m/S 755 mmHg 87%
02:00 +5°C° 0 mm 3 m/S 756 mmHg 88%
03:00 +5°C° 0 mm 3 m/S 756 mmHg 89%
04:00 +5°C° 0 mm 2 m/S 756 mmHg 90%
05:00 +5°C° 0 mm 2 m/S 756 mmHg 90%
06:00 +5°C° 0 mm 2 m/S 756 mmHg 90%
07:00 +5°C° 0 mm 2 m/S 756 mmHg 90%
08:00 +7°C° 0 mm 2 m/S 756 mmHg 84%
09:00 +8°C° 0 mm 2 m/S 756 mmHg 78%
10:00 +9°C° 0 mm 2 m/S 756 mmHg 73%
11:00 +10°C° 0 mm 2 m/S 756 mmHg 69%
12:00 +11°C° 0 mm 3 m/S 756 mmHg 65%
13:00 +12°C° 0 mm 3 m/S 755 mmHg 61%
14:00 +12°C° 0 mm 2 m/S 755 mmHg 64%
15:00 +12°C° 0 mm 2 m/S 755 mmHg 68%
16:00 +10°C° 0 mm 2 m/S 755 mmHg 71%
17:00 +10°C° 0 mm 2 m/S 755 mmHg 72%
18:00 +9°C° 0 mm 3 m/S 755 mmHg 73%
19:00 +8°C° 0 mm 3 m/S 755 mmHg 74%
20:00 +8°C° 0 mm 3 m/S 755 mmHg 75%
21:00 +8°C° 0 mm 3 m/S 755 mmHg 76%
22:00 +7°C° 0 mm 3 m/S 755 mmHg 77%
23:00 +7°C° 0 mm 3 m/S 755 mmHg 79%

26 Oktober, Montag

Zeit Temperatur Niederschläge Wind Luftdruck Luftfeuchtigkeit
00:00 +7°C° 0 mm 3 m/S 755 mmHg 80%
01:00 +7°C° 0 mm 3 m/S 754 mmHg 81%
02:00 +7°C° 0 mm 3 m/S 754 mmHg 82%
03:00 +7°C° 0 mm 3 m/S 754 mmHg 84%
04:00 +5°C° 0 mm 3 m/S 754 mmHg 85%
05:00 +5°C° 0 mm 3 m/S 754 mmHg 84%
06:00 +5°C° 0 mm 4 m/S 754 mmHg 82%
07:00 +5°C° 0 mm 4 m/S 754 mmHg 80%
08:00 +7°C° 0 mm 4 m/S 754 mmHg 76%
09:00 +8°C° 0 mm 4 m/S 754 mmHg 72%
10:00 +10°C° 0 mm 5 m/S 754 mmHg 68%
11:00 +12°C° 0 mm 5 m/S 754 mmHg 66%
12:00 +12°C° 0 mm 5 m/S 754 mmHg 64%
13:00 +13°C° 0 mm 5 m/S 753 mmHg 62%
14:00 +13°C° 0 mm 4 m/S 753 mmHg 64%
15:00 +12°C° 0 mm 4 m/S 753 mmHg 66%
16:00 +11°C° 0 mm 3 m/S 753 mmHg 68%
17:00 +11°C° 0 mm 3 m/S 753 mmHg 70%
18:00 +10°C° 0 mm 3 m/S 753 mmHg 72%
19:00 +9°C° 0 mm 3 m/S 754 mmHg 74%
20:00 +9°C° 0 mm 3 m/S 754 mmHg 75%
21:00 +8°C° 0 mm 3 m/S 754 mmHg 76%
22:00 +8°C° 0 mm 3 m/S 755 mmHg 78%
23:00 +8°C° 0 mm 3 m/S 755 mmHg 80%

27 Oktober, Dienstag

Zeit Temperatur Niederschläge Wind Luftdruck Luftfeuchtigkeit
00:00 +7°C° 0 mm 3 m/S 755 mmHg 82%
01:00 +7°C° 0 mm 2 m/S 755 mmHg 84%
02:00 +7°C° 0 mm 2 m/S 755 mmHg 85%
03:00 +7°C° 0 mm 2 m/S 755 mmHg 87%
04:00 +7°C° 0 mm 2 m/S 756 mmHg 89%
05:00 +7°C° 0 mm 2 m/S 756 mmHg 88%
06:00 +7°C° 0 mm 2 m/S 756 mmHg 88%
07:00 +7°C° 0 mm 2 m/S 757 mmHg 87%
08:00 +9°C° 0 mm 2 m/S 757 mmHg 83%
09:00 +10°C° 0 mm 2 m/S 757 mmHg 79%
10:00 +12°C° 0 mm 2 m/S 758 mmHg 75%
11:00 +13°C° 0 mm 2 m/S 758 mmHg 74%
12:00 +14°C° 0 mm 2 m/S 758 mmHg 72%
13:00 +15°C° 0 mm 2 m/S 758 mmHg 71%
14:00 +14°C° 0 mm 1 m/S 758 mmHg 74%
15:00 +14°C° 0 mm 1 m/S 758 mmHg 77%
16:00 +13°C° 0 mm 1 m/S 758 mmHg 81%
17:00 +12°C° 0 mm 0 m/S 759 mmHg 81%
18:00 +12°C° 0 mm 0 m/S 759 mmHg 81%
19:00 +11°C° 0 mm 0 m/S 759 mmHg 81%
20:00 +11°C° 0 mm 0 m/S 759 mmHg 80%
21:00 +11°C° 0 mm 0 m/S 760 mmHg 80%
22:00 +12°C° 0 mm 1 m/S 760 mmHg 79%
23:00 +12°C° 0 mm 1 m/S 760 mmHg 82%
Mehr zeigen

Wir brauchen deine Erlaubnis

Meteoprog und unser Service Anbieter werden persönliche Daten aufbewahren, so wie Cookies, Geräte Bezeichnung oder ähnliche Technologien von deinem Gerät und Prozess, so wie Persönliche Daten Inhalte und Werbungen, genauso wie social Media und den Verkehr zu analysieren.

  • Aufbewahrung und/oder Zugang zu deiner Geräte Informationen.

    Cookies, Geräte Bezeichnung oder andere Informationen, können aufbewahrt oder Zugang zu deinem Gerät erhalten, für den Grund, der oben angegeben wird.

  • Personalisierte Werbung und Inhalte, Messungen, Einblick in das Publikum und Produkt Entwicklung.

    Werbungen und Inhalte können personalisiert werden, basierend auf ein Profil. Mehr Daten können besser personalisierte Werbungen und Inhalte hinzufügen. Werbung und Inhalte können gezeigt und gemessen werden. Einblicke über das Publikum, welche die Werbung gesehen haben und den Inhalt, können abgeleitet werden. So wie Daten können genutzt werden, um es zu verbessern oder die Benutzer Erfahrung zu verbessern das System und die Software.

Wenn du “Ich stimme zu” klickst, erlaubst du uns, die Cookies zu benutzen die Geräte Bezeichnung, den Web oder ähnliche Technologien zu benutzen. Deine Settings, können in deinem Gerät bei deinem Browser geändert werden.

Für den bestimmten Zweck, berechtigten Interessen beruhen darauf, mehr als auf den Inhalt. Du kannst mehr darüber in unseren Privaten und Cookie Politik lesen.